Time,TemperatureF,DewpointF,PressureIn,WindDirection,WindDirectionDegrees,WindSpeedMPH,WindSpeedGustMPH,Humidity,HourlyPrecipIn,Conditions,Clouds,dailyrainin,SolarRadiationWatts/m^2,SoftwareType,DateUTC
2013-08-17 00:01:00,63.0,39.0,-100.00,West,263,2.0,3.0,41,0.00,,,0.00,0.000000,,2013-08-17 06:01:00,
2013-08-17 00:12:00,63.0,39.0,-100.00,West,263,2.0,3.0,41,0.00,,,0.00,0.000000,,2013-08-17 06:12:00,
2013-08-17 00:42:00,60.0,40.0,-100.00,SW,217,2.0,4.0,47,0.00,,,0.00,0.000000,,2013-08-17 06:42:00,
2013-08-17 00:52:00,60.0,40.0,-100.00,SW,217,2.0,4.0,47,0.00,,,0.00,0.000000,,2013-08-17 06:52:00,
2013-08-17 01:01:00,60.0,40.0,-100.00,SW,217,2.0,4.0,47,0.00,,,0.00,0.000000,,2013-08-17 07:01:00,
2013-08-17 01:11:00,60.0,40.0,-100.00,SW,217,2.0,4.0,47,0.00,,,0.00,0.000000,,2013-08-17 07:11:00,
2013-08-17 01:42:00,58.0,40.0,-100.00,WSW,254,2.0,3.0,51,0.00,,,0.00,0.000000,,2013-08-17 07:42:00,
2013-08-17 01:52:00,58.0,40.0,-100.00,WSW,254,2.0,3.0,51,0.00,,,0.00,0.000000,,2013-08-17 07:52:00,
2013-08-17 02:01:00,58.0,40.0,-100.00,WSW,254,2.0,3.0,51,0.00,,,0.00,0.000000,,2013-08-17 08:01:00,
2013-08-17 02:11:00,58.0,40.0,-100.00,WSW,254,2.0,3.0,51,0.00,,,0.00,0.000000,,2013-08-17 08:11:00,
2013-08-17 02:42:00,57.0,41.0,-100.00,WNW,301,1.0,3.0,56,0.00,,,0.00,0.000000,,2013-08-17 08:42:00,
2013-08-17 02:52:00,57.0,41.0,-100.00,WNW,301,1.0,3.0,56,0.00,,,0.00,0.000000,,2013-08-17 08:52:00,
2013-08-17 03:01:00,57.0,41.0,-100.00,WNW,301,1.0,3.0,56,0.00,,,0.00,0.000000,,2013-08-17 09:01:00,
2013-08-17 03:11:00,57.0,41.0,-100.00,WNW,301,1.0,3.0,56,0.00,,,0.00,0.000000,,2013-08-17 09:11:00,
2013-08-17 03:43:00,54.0,41.0,-100.00,WSW,245,0.0,3.0,61,0.00,,,0.00,0.000000,,2013-08-17 09:43:00,
2013-08-17 03:53:00,54.0,41.0,-100.00,WSW,245,0.0,3.0,61,0.00,,,0.00,0.000000,,2013-08-17 09:53:00,
2013-08-17 04:03:00,54.0,41.0,-100.00,WSW,245,0.0,3.0,61,0.00,,,0.00,0.000000,,2013-08-17 10:03:00,
2013-08-17 04:12:00,54.0,41.0,-100.00,WSW,245,0.0,3.0,61,0.00,,,0.00,0.000000,,2013-08-17 10:12:00,
2013-08-17 04:42:00,53.0,42.0,-100.00,West,276,1.0,3.0,66,0.00,,,0.00,0.000000,,2013-08-17 10:42:00,
2013-08-17 04:52:00,53.0,42.0,-100.00,West,276,1.0,3.0,66,0.00,,,0.00,0.000000,,2013-08-17 10:52:00,
2013-08-17 05:02:00,53.0,42.0,-100.00,West,276,1.0,3.0,66,0.00,,,0.00,0.000000,,2013-08-17 11:02:00,
2013-08-17 05:11:00,53.0,42.0,-100.00,West,276,1.0,3.0,66,0.00,,,0.00,0.000000,,2013-08-17 11:11:00,
2013-08-17 05:42:00,50.0,42.0,-100.00,WNW,282,2.0,3.0,75,0.00,,,0.00,0.000000,,2013-08-17 11:42:00,
2013-08-17 05:52:00,50.0,42.0,-100.00,WNW,282,2.0,3.0,75,0.00,,,0.00,0.000000,,2013-08-17 11:52:00,
2013-08-17 06:01:00,50.0,42.0,-100.00,WNW,282,2.0,3.0,75,0.00,,,0.00,0.000000,,2013-08-17 12:01:00,
2013-08-17 06:11:00,50.0,42.0,-100.00,WNW,282,2.0,3.0,75,0.00,,,0.00,0.000000,,2013-08-17 12:11:00,
2013-08-17 06:42:00,50.0,42.0,-100.00,WNW,299,0.0,5.0,75,0.00,,,0.00,0.000000,,2013-08-17 12:42:00,
2013-08-17 06:52:00,50.0,42.0,-100.00,WNW,299,0.0,5.0,75,0.00,,,0.00,0.000000,,2013-08-17 12:52:00,
2013-08-17 07:01:00,50.0,42.0,-100.00,WNW,299,0.0,5.0,75,0.00,,,0.00,0.000000,,2013-08-17 13:01:00,
2013-08-17 07:11:00,50.0,42.0,-100.00,WNW,299,0.0,5.0,75,0.00,,,0.00,0.000000,,2013-08-17 13:11:00,
2013-08-17 07:42:00,48.0,42.0,-100.00,West,259,1.0,4.0,81,0.00,,,0.00,0.000000,,2013-08-17 13:42:00,
2013-08-17 07:52:00,48.0,42.0,-100.00,West,259,1.0,4.0,81,0.00,,,0.00,0.000000,,2013-08-17 13:52:00,
2013-08-17 08:01:00,48.0,42.0,-100.00,West,259,1.0,4.0,81,0.00,,,0.00,0.000000,,2013-08-17 14:01:00,
2013-08-17 08:11:00,48.0,42.0,-100.00,West,259,1.0,4.0,81,0.00,,,0.00,0.000000,,2013-08-17 14:11:00,
2013-08-17 08:42:00,49.0,43.0,-100.00,SSW,210,2.0,5.0,81,0.00,,,0.00,8.000000,,2013-08-17 14:42:00,
2013-08-17 08:52:00,49.0,43.0,-100.00,SSW,210,2.0,5.0,81,0.00,,,0.00,8.000000,,2013-08-17 14:52:00,
2013-08-17 09:01:00,49.0,43.0,-100.00,SSW,210,2.0,5.0,81,0.00,,,0.00,8.000000,,2013-08-17 15:01:00,
2013-08-17 09:11:00,49.0,43.0,-100.00,SSW,210,2.0,5.0,81,0.00,,,0.00,8.000000,,2013-08-17 15:11:00,
2013-08-17 09:44:00,51.0,43.0,-100.00,South,190,1.0,5.0,75,0.00,,,0.00,50.000000,,2013-08-17 15:44:00,
2013-08-17 10:42:00,60.0,46.0,-100.00,South,169,2.0,7.0,59,-99.99,,,0.00,234.000000,,2013-08-17 16:42:00,
2013-08-17 11:12:00,60.0,46.0,-100.00,South,169,2.0,7.0,59,-99.99,,,0.00,234.000000,,2013-08-17 17:12:00,
2013-08-17 11:42:00,68.0,45.0,-100.00,SSE,159,3.0,6.0,43,0.00,,,-99.99,286.000000,,2013-08-17 17:42:00,
2013-08-17 11:52:00,68.0,45.0,-100.00,SSE,159,3.0,6.0,43,0.00,,,-99.99,286.000000,,2013-08-17 17:52:00,
2013-08-17 12:02:00,68.0,45.0,-100.00,SSE,159,3.0,6.0,43,0.00,,,-99.99,286.000000,,2013-08-17 18:02:00,
2013-08-17 12:42:00,79.0,47.0,-100.00,SSE,148,4.0,6.0,32,-99.99,,,0.00,659.000000,,2013-08-17 18:42:00,
2013-08-17 12:52:00,79.0,47.0,-100.00,SSE,148,4.0,6.0,32,-99.99,,,0.00,659.000000,,2013-08-17 18:52:00,
2013-08-17 13:01:00,79.0,47.0,-100.00,SSE,148,4.0,6.0,32,-99.99,,,0.00,659.000000,,2013-08-17 19:01:00,
2013-08-17 13:11:00,79.0,47.0,-100.00,SSE,148,4.0,6.0,32,-99.99,,,0.00,659.000000,,2013-08-17 19:11:00,
2013-08-17 13:42:00,84.0,47.0,-100.00,SE,133,4.0,6.0,28,0.00,,,0.00,804.000000,,2013-08-17 19:42:00,
2013-08-17 13:52:00,84.0,47.0,-100.00,SE,133,4.0,6.0,28,0.00,,,0.00,804.000000,,2013-08-17 19:52:00,
2013-08-17 14:02:00,84.0,47.0,-100.00,SE,133,4.0,6.0,28,0.00,,,0.00,804.000000,,2013-08-17 20:02:00,
2013-08-17 14:11:00,84.0,47.0,-100.00,SE,133,4.0,6.0,28,0.00,,,0.00,804.000000,,2013-08-17 20:11:00,
2013-08-17 14:42:00,87.0,42.0,-100.00,SSE,149,5.0,10.0,21,0.00,,,0.00,872.000000,,2013-08-17 20:42:00,
2013-08-17 14:52:00,87.0,42.0,-100.00,SSE,149,5.0,10.0,21,0.00,,,0.00,872.000000,,2013-08-17 20:52:00,
2013-08-17 15:01:00,87.0,42.0,-100.00,SSE,149,5.0,10.0,21,0.00,,,0.00,872.000000,,2013-08-17 21:01:00,
2013-08-17 15:11:00,87.0,42.0,-100.00,SSE,149,5.0,10.0,21,0.00,,,0.00,872.000000,,2013-08-17 21:11:00,
2013-08-17 15:42:00,89.0,37.0,-100.00,WSW,258,5.0,10.0,16,0.00,,,0.00,699.000000,,2013-08-17 21:42:00,
2013-08-17 15:53:00,89.0,37.0,-100.00,WSW,258,5.0,10.0,16,0.00,,,0.00,699.000000,,2013-08-17 21:53:00,
2013-08-17 16:03:00,89.0,37.0,-100.00,WSW,258,5.0,10.0,16,0.00,,,0.00,699.000000,,2013-08-17 22:03:00,
2013-08-17 16:12:00,89.0,37.0,-100.00,WSW,258,5.0,10.0,16,0.00,,,0.00,699.000000,,2013-08-17 22:12:00,
2013-08-17 16:42:00,89.0,37.0,-100.00,SSE,164,4.0,15.0,16,0.00,,,0.00,543.000000,,2013-08-17 22:42:00,
2013-08-17 16:52:00,89.0,37.0,-100.00,SSE,164,4.0,15.0,16,0.00,,,0.00,543.000000,,2013-08-17 22:52:00,
2013-08-17 17:02:00,89.0,37.0,-100.00,SSE,164,4.0,15.0,16,0.00,,,0.00,543.000000,,2013-08-17 23:02:00,
2013-08-17 17:11:00,89.0,37.0,-100.00,SSE,164,4.0,15.0,16,0.00,,,0.00,543.000000,,2013-08-17 23:11:00,
2013-08-17 17:42:00,87.0,38.0,-100.00,SSE,151,2.0,10.0,18,0.00,,,0.00,384.000000,,2013-08-17 23:42:00,
2013-08-17 17:52:00,87.0,38.0,-100.00,SSE,151,2.0,10.0,18,0.00,,,0.00,384.000000,,2013-08-17 23:52:00,
2013-08-17 18:01:00,87.0,38.0,-100.00,SSE,151,2.0,10.0,18,0.00,,,0.00,384.000000,,2013-08-18 00:01:00,
2013-08-17 18:11:00,87.0,38.0,-100.00,SSE,151,2.0,10.0,18,0.00,,,0.00,384.000000,,2013-08-18 00:11:00,
2013-08-17 18:42:00,86.0,41.0,-100.00,NNE,28,6.0,15.0,21,0.00,,,0.00,413.000000,,2013-08-18 00:42:00,
2013-08-17 18:52:00,86.0,41.0,-100.00,NNE,28,6.0,15.0,21,0.00,,,0.00,413.000000,,2013-08-18 00:52:00,
2013-08-17 19:01:00,86.0,41.0,-100.00,NNE,28,6.0,15.0,21,0.00,,,0.00,413.000000,,2013-08-18 01:01:00,
2013-08-17 19:11:00,86.0,41.0,-100.00,NNE,28,6.0,15.0,21,0.00,,,0.00,413.000000,,2013-08-18 01:11:00,
2013-08-17 19:42:00,87.0,42.0,-100.00,ESE,120,3.0,12.0,21,0.00,,,0.00,400.000000,,2013-08-18 01:42:00,
2013-08-17 19:52:00,87.0,42.0,-100.00,ESE,120,3.0,12.0,21,0.00,,,0.00,400.000000,,2013-08-18 01:52:00,
2013-08-17 20:02:00,87.0,42.0,-100.00,ESE,120,3.0,12.0,21,0.00,,,0.00,400.000000,,2013-08-18 02:02:00,
2013-08-17 20:11:00,87.0,42.0,-100.00,ESE,120,3.0,12.0,21,0.00,,,0.00,400.000000,,2013-08-18 02:11:00,
2013-08-17 20:42:00,85.0,43.0,-100.00,NNE,20,2.0,6.0,23,0.00,,,0.00,249.000000,,2013-08-18 02:42:00,
2013-08-17 20:52:00,85.0,43.0,-100.00,NNE,20,2.0,6.0,23,0.00,,,0.00,249.000000,,2013-08-18 02:52:00,
2013-08-17 21:02:00,85.0,43.0,-100.00,NNE,20,2.0,6.0,23,0.00,,,0.00,249.000000,,2013-08-18 03:02:00,
2013-08-17 21:11:00,85.0,43.0,-100.00,NNE,20,2.0,6.0,23,0.00,,,0.00,249.000000,,2013-08-18 03:11:00,
2013-08-17 21:43:00,76.0,45.0,-100.00,NW,314,2.0,5.0,33,0.00,,,0.00,57.000000,,2013-08-18 03:43:00,
2013-08-17 21:53:00,76.0,45.0,-100.00,NW,314,2.0,5.0,33,0.00,,,0.00,57.000000,,2013-08-18 03:53:00,
2013-08-17 22:02:00,-999.0,-99.9,-100.00,NW,314,2.0,5.0,-999,0.00,,,0.00,57.000000,,2013-08-18 04:02:00,
2013-08-17 22:12:00,76.0,45.0,-100.00,NW,314,2.0,5.0,33,0.00,,,0.00,57.000000,,2013-08-18 04:12:00,
2013-08-17 22:42:00,70.0,46.0,-100.00,SSW,193,2.0,5.0,43,0.00,,,0.00,2.000000,,2013-08-18 04:42:00,
2013-08-17 22:53:00,70.0,46.0,-100.00,SSW,193,2.0,5.0,43,0.00,,,0.00,2.000000,,2013-08-18 04:53:00,
2013-08-17 23:02:00,70.0,46.0,-100.00,SSW,193,2.0,5.0,43,0.00,,,0.00,2.000000,,2013-08-18 05:02:00,
2013-08-17 23:12:00,70.0,46.0,-100.00,SSW,193,2.0,5.0,43,0.00,,,0.00,2.000000,,2013-08-18 05:12:00,
2013-08-17 23:42:00,66.0,43.0,-100.00,NW,307,1.0,5.0,44,0.00,,,0.00,0.000000,,2013-08-18 05:42:00,
2013-08-17 23:52:00,66.0,43.0,-100.00,NW,307,1.0,5.0,44,0.00,,,0.00,0.000000,,2013-08-18 05:52:00,